Find Praetorian SDA-618

NORAD ID: 65581 Int'l Des: 2025-203 Owner: SDA Country: US operational
LEOCIRCULARPOLAR

リアルタイム位置

3D地球を読み込み中...

Praetorian SDA-618について

説明を読み込み中...

次回通過

Passes for default location (London). Set your location on the main map for personalized predictions.

高度履歴

Loading altitude history...

軌道要素

1 65581U 25203S 26135.24622727 .00000161 00000-0 13279-3 0 9999
2 65581 81.3041 41.0239 0008818 285.5313 74.4871 13.84771095 34154
Epoch: May 15, 2026 • Age: 24 hours

現在のステータス

高度 965.8 km
速度 7.37 km/s
衛星直下点 -66.66°S, 57.61°E
打ち上げ日 Sep 10, 2025
運用期間 0.6 years
タイプ other

技術仕様

分類 Payload
質量 300.00 kg
乾燥質量 300.00 kg
総質量 300.00 kg
長さ 1.00 m
直径 0.60 m
スパン 2.00 m
形状 Box + panels
製造者 YORKSS
バスタイプ S-Class
フェーズステータス In Orbit
所有者/国 SDA/US

Most Searched